Location: Campillo
(40.8621°N, 4.2488°W)
Time: 17:05:13
(UTC+00:00)

Cosmos 158 Rocket - Pass Details

Date: 04 October 2021
Orbit: 699 x 792 km, 74.0° (Epoch: 27 October)

Event Time Altitude Azimuth Distance (km) Brightness Sun altitude
Rises 19:50:11 0° 321° (NW) 3,115 8.0 -22.7°
Reaches altitude 10° 19:53:31 10° 297° (WNW) 2,178 7.4 -23.3°
Maximum altitude 19:56:06 14° 265° (W) 1,880 6.9 -23.8°
Drops below altitude 10° 19:58:40 10° 233° (SW) 2,158 6.8 -24.2°
Sets 20:01:58 0° 209° (SSW) 3,068 7.3 -24.8°
